Flag for Mauritania Weather past 2 weeks in Nouakchott, Mauritania

88 °F


Feels Like: 84 °F
Forecast: N/A
Wind: 8 mph from East

Location: Nouakchott Airport

Current Time: Nov 27, 2015 at 3:36:04 PM

Latest Report: Nov 27, 2015 at 3:00 PM

Visibility: 4 mi

Pressure: 29.86 "Hg

Humidity: 13%

Dew point: 30 °F

Location of NouakchottLocation

Historic Weather in Nouakchott — Graph


Nouakchott temperature yesterday

Maximum temperature yesterday: 88 °F (at 2:30 PM)
Minimum temperature yesterday: 61 °F (at 7:00 AM)
Average temperature yesterday: 75 °F

Past Weeks' High & Low Weather Summary

High99 °F (Nov 13, 1:30 PM)69% (Nov 24, 8:30 PM)30.07 "Hg (Nov 24, 8:30 PM)
Low59 °F (Nov 25, 6:30 AM)11% (Nov 20, 3:00 PM)29.80 "Hg (Nov 22, 5:00 PM)
Average80 °F25%29.94 "Hg
* Reported Nov 12 2:00 PM — Nov 27 2:30 PM, Nouakchott, Weather by CustomWeather, © 2015

Note: Actual official high and low records may vary slightly from our data, if they occured in-between our weather recording intervals... More about our weather records


Nouakchott weather history for previous 24 hours

Time TempWeatherWind HumidityBarometerVisibility
2:30 PM
Fri, Nov 27
88 °FClear.10 mph13%29.86 "Hg4 mi
2:00 PM88 °FClear.10 mph13%29.89 "Hg4 mi
1:30 PM86 °FClear.10 mph13%29.89 "Hg4 mi
1:00 PM86 °FClear.13 mph14%29.92 "Hg4 mi
12:30 PM84 °FClear.12 mph15%29.92 "Hg4 mi
12:00 PM82 °FClear.12 mph16%29.95 "Hg4 mi
11:30 AM81 °FClear.12 mph16%29.95 "Hg4 mi
11:00 AM77 °FClear.12 mph17%29.98 "Hg4 mi
10:30 AM75 °FClear.10 mph19%29.95 "Hg4 mi
10:00 AM72 °FClear.12 mph22%29.98 "Hg4 mi
9:30 AM68 °FClear.8 mph24%29.95 "Hg4 mi
9:00 AM66 °FClear.6 mph26%29.95 "Hg4 mi
8:30 AM64 °FClear.6 mph28%29.92 "Hg4 mi
8:00 AM63 °FClear.7 mph30%29.92 "Hg4 mi
6:30 AM63 °FClear.3 mph30%29.92 "Hg4 mi
6:00 AM63 °FClear.No wind30%29.92 "Hg4 mi
5:30 AM63 °FClear.No wind27%29.92 "Hg4 mi
5:00 AM63 °FClear.No wind30%29.92 "Hg4 mi
4:00 AM66 °FClear.9 mph26%29.92 "Hg4 mi
3:30 AM68 °FClear.6 mph24%29.92 "Hg4 mi
3:00 AM68 °FClear.6 mph24%29.95 "Hg4 mi
2:30 AM68 °FClear.6 mph24%29.95 "Hg4 mi
2:00 AM68 °FClear.No wind23%29.95 "Hg4 mi
1:30 AM70 °FClear.7 mph23%29.95 "Hg4 mi
1:00 AM70 °FClear.8 mph23%29.95 "Hg4 mi
12:30 AM72 °FClear.9 mph22%29.95 "Hg4 mi
12:00 AM73 °FClear.10 mph20%29.98 "Hg4 mi
11:30 PM
Thu, Nov 26
75 °FLow level haze.8 mph19%29.98 "Hg3 mi
11:00 PM73 °FLow level haze.No wind23%29.98 "Hg3 mi
10:00 PM75 °FLow level haze.No wind22%29.98 "Hg3 mi
9:30 PM77 °FLow level haze.6 mph21%29.98 "Hg3 mi
9:00 PM79 °FLow level haze.6 mph18%29.95 "Hg3 mi
8:30 PM79 °FLow level haze.8 mph20%29.95 "Hg3 mi
8:00 PM81 °FLow level haze.No wind18%29.92 "Hg3 mi
7:30 PM81 °FLow level haze.8 mph18%29.92 "Hg3 mi
7:00 PM82 °FLow level haze.2 mph17%29.92 "Hg3 mi
6:30 PM82 °FLow level haze.6 mph17%29.92 "Hg3 mi
6:00 PM84 °FLow level haze.6 mph16%29.89 "Hg3 mi
5:30 PM86 °FLow level haze.1 mph15%29.89 "Hg3 mi
5:00 PM86 °FLow level haze.10 mph17%29.89 "Hg3 mi
4:30 PM86 °FLow level haze.9 mph15%29.89 "Hg3 mi
4:00 PM88 °FLow level haze.10 mph15%29.89 "Hg3 mi
3:30 PM88 °FLow level haze.9 mph15%29.89 "Hg3 mi
3:00 PM88 °FLow level haze.12 mph15%29.89 "Hg3 mi
Weather by CustomWeather, © 2015

See weather overviewHow to use our weather pages